Sunday, July 22, 2018, 8:06 PM EDT
Back to Local

KMTN, Baltimore / Martin

Location: Middle River, MD, United States Lat: 39.333
Local Time: 8:06 PM EDT ( 0:06 GMT) Lon: -76.417
Time Zone: US/Eastern Elev: 22 ft

Show me the last for .
Show Decoded

2018-07-22 19:28 METAR KMTN 222328Z COR 18012KT 1SM +TSRA BKN022 BKN032 OVC060 23/23 A2992 RMK
                 FQT LTGCGCC ALQDS TS OHD MOV N =
2018-07-22 19:08 METAR KMTN 222308Z 36005KT 3SM +TSRA BKN029 BKN035 OVC047 23/23 A2987 RMK
                 TSB2207 FQT LTGCGCC SW TS OHD AND SW MOV NW =
2018-07-22 18:45 METAR KMTN 222245Z 27003KT 7SM -TSRA BKN031 BKN039 OVC050 23/23 A2988 RMK TSB07
                 OCNL LTGCG S-SW TS SW MOV NW =
2018-07-22 18:06 METAR KMTN 222206Z 00000KT 10SM TS BKN045 BKN080 BKN250 23/23 A2986 RMK TSB07
                 OCNL LTGCG S TS S MOV NW =
2018-07-22 17:45 METAR KMTN 222145Z 00000KT 10SM SCT080 BKN120 BKN250 23/23 A2985 =
2018-07-22 16:45 METAR KMTN 222045Z 00000KT 10SM SCT020 BKN050 23/23 A2984 =
2018-07-22 16:05 METAR KMTN 222005Z 06004KT 5SM -RA SCT020 BKN065 22/22 A2983 =
2018-07-22 15:45 METAR KMTN 221945Z 15008KT 1SM +RA BKN009 BKN018 22/22 A2982 =
2018-07-22 15:21 METAR KMTN 221921Z 18021KT 1SM +RA BKN009 OVC028 24/23 A2988 RMK TSB1900E21 =
2018-07-22 15:00 METAR KMTN 221900Z COR 36004KT 7SM TS BKN009 BKN033 24/23 A2984 RMK TSB1900 TS S
                 MOV N =
2018-07-22 14:45 METAR KMTN 221845Z 03007KT 7SM SCT011 BKN038 24/23 A2984 =
2018-07-22 13:45 METAR KMTN 221745Z 05003KT 10SM -RA SCT008 BKN039 23/23 A2986 =
2018-07-22 12:45 METAR KMTN 221645Z 00000KT 10SM -RA BKN020 BKN060 24/22 A2987 =
2018-07-22 11:50 METAR KMTN 221550Z 12005KT 7SM RA BKN015 BKN040 23/22 A2989 =
2018-07-22 10:45 METAR KMTN 221445Z 12004KT 10SM BKN015 BKN085 23/21 A2988 =
2018-07-22 09:45 METAR KMTN 221345Z 15006KT 10SM BKN010 23/21 A2988 =
2018-07-22 08:45 METAR KMTN 221245Z 14005KT 10SM BKN010 BKN200 21/20 A2986 =
2018-07-22 07:45 METAR KMTN 221145Z 20004KT 10SM BKN010 BKN200 19/19 A2981 =
2018-07-22 06:45 METAR KMTN 221045Z 21005KT 10SM BKN008 BKN200 19/19 A2979 =
2018-07-22 05:45 METAR KMTN 220945Z 20005KT 10SM OVC008 19/19 A2975 =
2018-07-22 05:30 METAR KMTN 220930Z AUTO 19003KT 10SM OVC008 19/19 A2974 RMK AO2 =
2018-07-22 05:15 METAR KMTN 220915Z AUTO 18004KT 10SM OVC008 19/19 A2974 RMK AO2 =
2018-07-22 04:57 METAR KMTN 220857Z AUTO 20008KT 10SM OVC008 19/19 A2973 RMK AO2 =
2018-07-22 04:36 METAR KMTN 220836Z AUTO 22004KT 10SM OVC008 19/19 A2971 RMK AO2 =
2018-07-22 04:15 METAR KMTN 220815Z AUTO 22008KT 10SM OVC006 20/20 A2970 RMK AO2 =
2018-07-22 03:57 METAR KMTN 220757Z AUTO 20007KT 10SM BKN006 OVC013 20/20 A2969 RMK AO2 =
2018-07-22 03:36 METAR KMTN 220736Z AUTO 00000KT 10SM BKN013 OVC027 20/20 A2967 RMK AO2 =
2018-07-22 03:15 METAR KMTN 220715Z AUTO 20007KT 10SM OVC025 19/19 A2966 RMK AO2 =
2018-07-22 02:57 METAR KMTN 220657Z AUTO 25005KT 10SM BKN023 BKN075 19/19 A2963 RMK AO2 =
2018-07-22 02:36 METAR KMTN 220636Z AUTO 26007KT 10SM SCT016 BKN021 BKN030 19/19 A2962 RMK AO2 =
2018-07-22 02:15 METAR KMTN 220615Z AUTO 26008KT 10SM SCT010 BKN016 OVC080 20/20 A2962 RMK AO2 =
2018-07-22 01:57 METAR KMTN 220557Z AUTO 26009KT 10SM SCT013 SCT045 OVC080 20/20 A2960 RMK AO2
                 P0008 =
2018-07-22 01:36 METAR KMTN 220536Z AUTO 22004KT 10SM RA SCT019 BKN065 OVC080 20/20 A2958 RMK AO2
                 P0008 =
2018-07-22 01:15 METAR KMTN 220515Z AUTO 27003KT 5SM +RA SCT013 BKN031 OVC038 20/20 A2959 RMK AO2
                 P0004 =
2018-07-22 00:57 METAR KMTN 220457Z AUTO 27013G19KT 4SM +RA SCT012 BKN022 OVC033 20/20 A2959 RMK
                 AO2 P0052 =
2018-07-22 00:36 METAR KMTN 220436Z AUTO 25015G21KT 1 3/4SM +RA BKN003 OVC011 20/20 A2961 RMK AO2
                 P0045 =
2018-07-22 00:15 METAR KMTN 220415Z AUTO 21006KT 4SM +DZ OVC005 21/21 A2961 RMK AO2 P0003 =
2018-07-21 23:57 METAR KMTN 220357Z AUTO 34004KT 4SM +DZ BKN005 OVC009 21/21 A2960 RMK AO2 P0004
                 =
2018-07-21 23:36 METAR KMTN 220336Z AUTO 35005G15KT 5SM +DZ OVC007 21/21 A2962 RMK AO2 P0002 =
2018-07-21 23:15 METAR KMTN 220315Z AUTO 35005G18KT 10SM RA OVC007 21/21 A2963 RMK AO2 P0001 =
2018-07-21 22:57 METAR KMTN 220257Z AUTO 35008KT 279V029 4SM +RA OVC007 21/21 A2964 RMK AO2 P0028
                 =
2018-07-21 22:36 METAR KMTN 220236Z AUTO 02004KT 4SM +RA OVC007 21/21 A2968 RMK AO2 P0016 =
2018-07-21 22:15 METAR KMTN 220215Z AUTO 01004KT 4SM RA OVC007 20/20 A2970 RMK AO2 P0006 =
2018-07-21 21:45 METAR KMTN 220145Z 02014KT 6SM -RA OVC007 21/21 A2973 =
2018-07-21 20:45 METAR KMTN 220045Z 02015KT 4SM -RA BR OVC007 21/21 A2975 =

Support USWX by starting your Amazon purchase here.